• In Germany
  • List of Countries
  • For 7 days
  • Water Temperature
  • Satellite Maps
  • Weather Map
  • Weather Widgets
  • user-avatar
    Login

    Hourly Weather Romanovka

    Today, 22 April, Sunday

    Time Temperature Precipitation Wind Pressure Humidity
    00:00 +4°C° 0 mm 1 mps 688 mmHg 49%
    01:00 +4°C° 0 mm 1 mps 688 mmHg 51%
    02:00 +3°C° 0 mm 1 mps 688 mmHg 52%
    03:00 +3°C° 0 mm 1 mps 688 mmHg 53%
    04:00 +2°C° 0 mm 1 mps 689 mmHg 55%
    05:00 +2°C° 0 mm 1 mps 689 mmHg 57%
    06:00 +4°C° 0 mm 1 mps 689 mmHg 51%
    07:00 +6°C° 0 mm 1 mps 690 mmHg 45%
    08:00 +8°C° 0 mm 1 mps 690 mmHg 37%
    09:00 +10°C° 0 mm 2 mps 690 mmHg 33%
    10:00 +12°C° 0 mm 3 mps 690 mmHg 30%
    11:00 +14°C° 0 mm 3 mps 690 mmHg 26%
    12:00 +15°C° 0 mm 4 mps 689 mmHg 25%
    13:00 +15°C° 0 mm 4 mps 689 mmHg 23%
    14:00 +17°C° 0 mm 4 mps 689 mmHg 21%
    15:00 +17°C° 0 mm 4 mps 689 mmHg 22%
    16:00 +17°C° 0 mm 4 mps 689 mmHg 22%
    17:00 +17°C° 0 mm 4 mps 688 mmHg 22%
    18:00 +14°C° 0 mm 3 mps 688 mmHg 27%
    19:00 +12°C° 0 mm 3 mps 688 mmHg 33%
    20:00 +10°C° 0 mm 2 mps 687 mmHg 38%
    21:00 +9°C° 0 mm 2 mps 687 mmHg 41%
    22:00 +8°C° 0 mm 2 mps 687 mmHg 45%
    23:00 +8°C° 0 mm 1 mps 688 mmHg 49%

    Tomorrow, 23 April, Monday

    Time Temperature Precipitation Wind Pressure Humidity
    00:00 +6°C° 0 mm 2 mps 688 mmHg 51%
    01:00 +6°C° 0 mm 2 mps 688 mmHg 52%
    02:00 +5°C° 0 mm 2 mps 688 mmHg 54%
    03:00 +5°C° 0 mm 2 mps 687 mmHg 54%
    04:00 +4°C° 0 mm 2 mps 687 mmHg 54%
    05:00 +4°C° 0 mm 2 mps 687 mmHg 54%
    06:00 +5°C° 0 mm 4 mps 687 mmHg 47%
    07:00 +7°C° 0 mm 5 mps 687 mmHg 39%
    08:00 +9°C° 0 mm 6 mps 687 mmHg 32%
    09:00 +11°C° 0 mm 6 mps 687 mmHg 30%
    10:00 +13°C° 0 mm 6 mps 687 mmHg 27%
    11:00 +15°C° 0 mm 7 mps 686 mmHg 24%
    12:00 +16°C° 0 mm 7 mps 686 mmHg 22%
    13:00 +16°C° 0 mm 7 mps 686 mmHg 20%
    14:00 +17°C° 0 mm 6 mps 685 mmHg 18%
    15:00 +17°C° 0 mm 6 mps 685 mmHg 18%
    16:00 +17°C° 0 mm 6 mps 685 mmHg 18%
    17:00 +17°C° 0 mm 6 mps 685 mmHg 18%
    18:00 +15°C° 0 mm 5 mps 685 mmHg 23%
    19:00 +13°C° 0 mm 4 mps 684 mmHg 27%
    20:00 +11°C° 0 mm 3 mps 684 mmHg 32%
    21:00 +10°C° 0 mm 2 mps 684 mmHg 35%
    22:00 +9°C° 0 mm 2 mps 684 mmHg 38%
    23:00 +8°C° 0 mm 2 mps 685 mmHg 42%

    Day after tomorrow, 24 April, Tuesday

    Time Temperature Precipitation Wind Pressure Humidity
    00:00 +7°C° 0 mm 2 mps 684 mmHg 42%
    01:00 +7°C° 0 mm 2 mps 684 mmHg 43%
    02:00 +6°C° 0 mm 2 mps 684 mmHg 44%
    03:00 +6°C° 0 mm 2 mps 684 mmHg 44%
    04:00 +6°C° 0 mm 2 mps 684 mmHg 44%
    05:00 +6°C° 0 mm 2 mps 683 mmHg 44%
    06:00 +7°C° 0 mm 3 mps 683 mmHg 40%
    07:00 +9°C° 0 mm 3 mps 683 mmHg 36%
    08:00 +11°C° 0 mm 3 mps 683 mmHg 32%
    09:00 +13°C° 0 mm 4 mps 683 mmHg 27%
    10:00 +17°C° 0 mm 4 mps 682 mmHg 23%
    11:00 +19°C° 0 mm 5 mps 682 mmHg 19%
    12:00 +20°C° 0 mm 5 mps 682 mmHg 19%
    13:00 +21°C° 0 mm 5 mps 681 mmHg 19%
    14:00 +22°C° 0 mm 6 mps 680 mmHg 19%
    15:00 +22°C° 0 mm 6 mps 680 mmHg 20%
    16:00 +22°C° 0 mm 6 mps 679 mmHg 21%
    17:00 +21°C° 0 mm 6 mps 679 mmHg 22%
    18:00 +19°C° 0 mm 5 mps 678 mmHg 26%
    19:00 +17°C° 0 mm 3 mps 678 mmHg 30%
    20:00 +15°C° 0 mm 2 mps 677 mmHg 35%
    21:00 +14°C° 0 mm 2 mps 677 mmHg 37%
    22:00 +13°C° 0 mm 1 mps 677 mmHg 39%
    23:00 +11°C° 0 mm 1 mps 676 mmHg 42%

    25 April, Wednesday

    Time Temperature Precipitation Wind Pressure Humidity
    00:00 +11°C° 0 mm 1 mps 676 mmHg 44%
    01:00 +10°C° 0 mm 1 mps 676 mmHg 46%
    02:00 +9°C° 0 mm 1 mps 676 mmHg 48%
    03:00 +9°C° 0 mm 1 mps 676 mmHg 50%
    04:00 +7°C° 0 mm 2 mps 676 mmHg 52%
    05:00 +7°C° 0 mm 2 mps 676 mmHg 54%
    06:00 +8°C° 0 mm 2 mps 677 mmHg 57%
    07:00 +8°C° 0 mm 3 mps 677 mmHg 60%
    08:00 +8°C° 0 mm 3 mps 678 mmHg 64%
    09:00 +7°C° 0.1 mm 4 mps 678 mmHg 63%
    10:00 +7°C° 0.1 mm 4 mps 678 mmHg 62%
    11:00 +7°C° 0.1 mm 4 mps 678 mmHg 61%
    12:00 +8°C° 0.2 mm 4 mps 679 mmHg 55%
    13:00 +10°C° 0.2 mm 3 mps 679 mmHg 50%
    14:00 +11°C° 0.2 mm 3 mps 679 mmHg 44%
    15:00 +11°C° 0 mm 3 mps 679 mmHg 41%
    16:00 +11°C° 0 mm 3 mps 680 mmHg 39%
    17:00 +11°C° 0 mm 3 mps 680 mmHg 36%
    18:00 +10°C° 0 mm 2 mps 680 mmHg 38%
    19:00 +8°C° 0 mm 2 mps 680 mmHg 40%
    20:00 +8°C° 0 mm 1 mps 680 mmHg 41%
    21:00 +6°C° 0 mm 1 mps 681 mmHg 40%
    22:00 +5°C° 0 mm 1 mps 681 mmHg 39%
    23:00 +4°C° 0 mm 1 mps 682 mmHg 38%

    26 April, Thursday

    Time Temperature Precipitation Wind Pressure Humidity
    00:00 +3°C° 0 mm 1 mps 682 mmHg 38%
    01:00 +2°C° 0 mm 1 mps 682 mmHg 39%
    02:00 +1°C° 0 mm 1 mps 682 mmHg 40%
    03:00 +1°C° 0 mm 1 mps 682 mmHg 40%
    04:00 0°C° 0 mm 0 mps 682 mmHg 41%
    05:00 -1°C° 0 mm 0 mps 682 mmHg 42%
    06:00 +2°C° 0 mm 1 mps 683 mmHg 38%
    07:00 +4°C° 0 mm 1 mps 683 mmHg 35%
    08:00 +7°C° 0 mm 1 mps 683 mmHg 31%
    09:00 +8°C° 0 mm 2 mps 683 mmHg 30%
    10:00 +10°C° 0 mm 2 mps 683 mmHg 30%
    11:00 +12°C° 0 mm 3 mps 682 mmHg 29%
    12:00 +14°C° 0 mm 3 mps 682 mmHg 26%
    13:00 +15°C° 0 mm 4 mps 681 mmHg 24%
    14:00 +17°C° 0 mm 4 mps 681 mmHg 21%
    15:00 +16°C° 0 mm 5 mps 680 mmHg 25%
    16:00 +17°C° 0 mm 5 mps 680 mmHg 28%
    17:00 +17°C° 0 mm 5 mps 679 mmHg 32%
    18:00 +15°C° 0.1 mm 5 mps 679 mmHg 39%
    19:00 +13°C° 0.1 mm 4 mps 679 mmHg 47%
    20:00 +12°C° 0.1 mm 3 mps 679 mmHg 54%
    21:00 +11°C° 0.1 mm 3 mps 679 mmHg 59%
    22:00 +10°C° 0.1 mm 3 mps 679 mmHg 64%
    23:00 +9°C° 0.1 mm 3 mps 679 mmHg 69%

    27 April, Friday

    Time Temperature Precipitation Wind Pressure Humidity
    00:00 +8°C° 0 mm 3 mps 679 mmHg 70%
    01:00 +7°C° 0 mm 3 mps 680 mmHg 72%
    02:00 +5°C° 0 mm 3 mps 680 mmHg 74%
    03:00 +5°C° 0 mm 3 mps 680 mmHg 71%
    04:00 +6°C° 0 mm 2 mps 680 mmHg 69%
    05:00 +5°C° 0 mm 2 mps 681 mmHg 66%
    06:00 +6°C° 0 mm 2 mps 681 mmHg 60%
    07:00 +7°C° 0 mm 3 mps 681 mmHg 54%
    08:00 +7°C° 0 mm 4 mps 681 mmHg 48%
    09:00 +8°C° 0 mm 4 mps 681 mmHg 41%
    10:00 +10°C° 0 mm 5 mps 681 mmHg 33%
    11:00 +11°C° 0 mm 6 mps 681 mmHg 26%
    12:00 +11°C° 0 mm 7 mps 681 mmHg 25%
    13:00 +12°C° 0 mm 8 mps 681 mmHg 25%
    14:00 +12°C° 0 mm 9 mps 680 mmHg 24%
    15:00 +11°C° 0 mm 9 mps 681 mmHg 24%
    16:00 +10°C° 0 mm 8 mps 681 mmHg 23%
    17:00 +10°C° 0 mm 8 mps 681 mmHg 23%
    18:00 +8°C° 0 mm 6 mps 681 mmHg 27%
    19:00 +7°C° 0 mm 4 mps 682 mmHg 31%
    20:00 +5°C° 0 mm 3 mps 682 mmHg 35%
    21:00 +5°C° 0 mm 2 mps 682 mmHg 40%
    22:00 +4°C° 0 mm 2 mps 682 mmHg 44%
    23:00 +4°C° 0 mm 1 mps 682 mmHg 49%
    Show more